[[{"header":{"parameterUnit":"m.s-1","parameterCategory":1,"la1":30.2991,"la2":30.254,"lo1":-89.0895,"lo2":-89.0444,"dy":0.0017,"dx":0.0017,"nx":28,"ny":28,"refTime":"2026-03-04T09:00:00:Z","depth":0,"parameterNumber":2,"parameterNumberName":"U-component_of_WINDS"},"data":[0,0,0,0,0,0,0,0,0,0,0,0,0,0,0,0,0,0,0,0,0,0,0,0,0,0,0,0,0,0,0,0,0,0,0,0,0,0,0,0,0,0,0,0,0,0,0,0,0,0,0,0,0,0,0,0,0,0,-3.5799,-3.5799,0,-3.5836,-3.5837,-3.5837,-3.5795,-3.5793,-3.5792,-3.579,-3.5827,-3.583,-3.5832,0,0,0,0,0,0,0,0,0,0,0,0,0,-3.569,-3.5692,-3.5798,-3.5799,-3.5799,-3.5836,-3.5837,-3.5837,-3.5795,-3.5793,-3.5791,-3.5789,-3.5826,-3.5829,-3.5832,0,0,0,0,0,0,0,0,0,0,0,0,0,-3.5734,-3.5693,-3.5798,-3.5783,-3.5782,-3.5836,-3.5837,-3.5837,-3.5795,-3.5793,-3.5791,-3.5788,-3.5826,-3.5829,-3.5833,-3.5904,0,0,-3.5844,-3.5846,0,0,0,0,0,0,0,0,-3.5731,-3.5738,-3.5785,-3.5784,-3.5783,-3.5808,-3.5812,-3.586,-3.5796,-3.579,-3.579,-3.5787,-3.5823,-3.5827,-3.5839,-3.5906,-3.5907,-3.5845,-3.5847,-3.5848,-3.5849,0,0,0,0,0,0,0,-3.5728,-3.5736,-3.5813,-3.5785,-3.5784,-3.5774,-3.5778,-3.5821,-3.5819,-3.5791,-3.5788,-3.5793,-3.5822,-3.5835,-3.584,-3.5908,-3.5844,-3.5848,-3.585,-3.5851,-3.6036,-3.6039,0,0,0,0,0,0,-3.5727,-3.5733,-3.5812,-3.5814,-3.5751,-3.5778,-3.5782,-3.5803,-3.5819,-3.5819,-3.5795,-3.5791,-3.583,-3.5835,-3.5841,-3.5925,-3.5848,-3.5852,-3.5854,-3.6034,-3.6037,-3.604,0,0,0,0,0,0,-3.5725,-3.5734,-3.5811,-3.5773,-3.5782,-3.5782,-3.5806,-3.5805,-3.5818,-3.5822,-3.5822,-3.5809,-3.5829,-3.5835,-3.5889,-3.5926,-3.5854,-3.5857,-3.6031,-3.6035,-3.6039,-3.6095,0,0,0,0,0,0,-3.5722,-3.5734,-3.576,-3.5774,-3.5784,-3.5858,-3.5808,-3.5807,-3.5825,-3.582,-3.5835,-3.5835,-3.5827,-3.5884,-3.5893,-3.593,-3.586,-3.6027,-3.6032,-3.6037,-3.609,-3.61,-3.611,0,0,0,0,0,-3.5718,-3.5774,-3.5762,-3.5772,-3.5818,-3.586,-3.5866,-3.5856,-3.5828,-3.5855,-3.5858,-3.5835,-3.5921,-3.5889,-3.5899,-3.5938,-3.6025,-3.6031,-3.6037,-3.6085,-3.6098,-3.6109,0,0,0,0,0,0,-3.5763,-3.5776,-3.5762,-3.5824,-3.5842,-3.5853,-3.5886,-3.587,-3.5895,-3.5889,-3.5876,-3.5879,-3.5936,-3.5943,-3.5907,-3.6009,-3.5968,-3.5977,-3.6002,-3.6014,-3.6024,-3.602,-3.5863,0,0,0,0,0,-3.5781,-3.5815,-3.5824,-3.5878,-3.5887,-3.5886,-3.5904,-3.5895,-3.5912,-3.5919,-3.5926,-3.5943,-3.5975,-3.5995,-3.6024,-3.6092,-3.6094,-3.6123,-3.6133,-3.6141,-3.6148,-3.6185,-3.6198,-3.606,-3.606,-3.606,0,0,-3.5817,-3.5828,-3.5849,-3.5887,-3.5899,-3.5935,-3.5892,-3.5931,-3.5957,-3.5925,-3.5976,-3.5982,-3.6001,-3.6062,-3.6089,-3.6069,-3.6188,-3.6149,-3.6156,-3.6158,-3.6193,-3.6206,-3.6218,-3.6064,-3.6063,-3.6062,0,0,-3.59,-3.5912,-3.5958,-3.5972,-3.5992,-3.5992,-3.6003,-3.6018,-3.6021,-3.6072,-3.6049,-3.6081,-3.6135,-3.6149,-3.6164,-3.6257,-3.6236,-3.6267,-3.6317,-3.6354,-3.6365,-3.6374,-3.6407,-3.6419,-3.6274,-3.6274,-3.6274,0,-3.5941,-3.5994,-3.5984,-3.6025,-3.6043,-3.6018,-3.6065,-3.6079,-3.6107,-3.612,-3.6098,-3.6166,-3.6177,-3.6242,-3.6265,-3.6277,-3.629,-3.6263,-3.6364,-3.6373,-3.6382,-3.6413,-3.6426,-3.6277,-3.6277,-3.6276,-3.6276,0,-3.6044,-3.6081,-3.6117,-3.6146,-3.6168,-3.6212,-3.6209,-3.6233,-3.6223,-3.6225,-3.6279,-3.6292,-3.6323,-3.6338,-3.6329,-3.6402,-3.6389,-3.6366,-3.6325,-3.6399,-3.6428,-3.644,-3.6282,-3.6281,-3.628,-3.6279,0,0,-3.6153,-3.6179,-3.6192,-3.6205,-3.6228,-3.6256,-3.63,-3.6332,-3.6352,-3.6374,-3.641,-3.6458,-3.6437,-3.6454,-3.6447,-3.6479,-3.6552,-3.6451,-3.6452,-3.6469,-3.6634,-3.665,-3.6664,-3.654,-3.6542,-3.6544,-3.6632,0,-3.6236,-3.6312,-3.6306,-3.6378,-3.6413,-3.6391,-3.6429,-3.6447,-3.6451,-3.6481,-3.6486,-3.652,-3.649,-3.65,-3.6531,-3.6536,-3.6584,-3.653,-3.6573,-3.6575,-3.6567,-3.6679,-3.6696,-3.6779,-3.6644,-3.6646,-3.6647,0,-3.6342,-3.6368,-3.6444,-3.6463,-3.6477,-3.6511,-3.6541,-3.6571,-3.6591,-3.6592,-3.6613,-3.66,-3.6645,-3.6606,-3.6668,-3.6631,-3.6649,-3.6654,-3.6657,-3.6659,-3.6614,-3.6683,-3.6805,-3.6817,-3.6665,-3.6663,-3.6662,0,-3.6413,-3.6468,-3.652,-3.6533,-3.6556,-3.6581,-3.6592,-3.661,-3.6631,-3.6657,-3.667,-3.6702,-3.6719,-3.6744,-3.6741,-3.6712,-3.6804,-3.6763,-3.6805,-3.6806,-3.6823,-3.6822,-3.6948,-3.6838,-3.6838,-3.6838,-3.6837,0,-3.6505,-3.6552,-3.6553,-3.6585,-3.6637,-3.6632,-3.6684,-3.6692,-3.6709,-3.6743,-3.6727,-3.6759,-3.6754,-3.6786,-3.6784,-3.6836,-3.6844,-3.6846,-3.6845,-3.6846,-3.6846,-3.6856,-3.685,-3.6841,-3.684,-3.684,-3.6839,0,-3.6592,-3.6594,-3.665,-3.6669,-3.6675,-3.6713,-3.6729,-3.6759,-3.6764,-3.6807,-3.6816,-3.6822,-3.686,-3.6861,-3.6903,-3.6902,-3.6965,-3.6958,-3.6958,-3.6956,-3.6998,-3.6994,-3.7134,-3.7152,-3.7031,-3.7032,-3.7033,0,-3.6649,-3.6685,-3.6708,-3.673,-3.6743,-3.6778,-3.6799,-3.6796,-3.6819,-3.6847,-3.6875,-3.6911,-3.694,-3.7001,-3.7009,-3.7043,-3.7035,-3.7082,-3.704,-3.7041,-3.7035,-3.7032,-3.7036,-3.709,-3.7091,-3.7092,-3.7093,0,-3.6751,-3.6751,-3.6782,-3.6815,-3.6841,-3.6867,-3.689,-3.6909,-3.6909,-3.6936,-3.6974,-3.6997,-3.7042,-3.7078,-3.7111,-3.7122,-3.7108,-3.7107,-3.7118,-3.7119,-3.7118,-3.7118,-3.6979,-3.7103,-3.7102,-3.7101,-3.7101,-3.71,-3.6824,-3.6855,-3.6877,-3.6913,-3.6931,-3.6954,-3.6985,-3.6994,-3.7026,-3.7062,-3.7059,-3.7102,-3.7125,-3.7167,-3.7182,-3.7216,-3.7199,-3.7216,-3.722,-3.7224,-3.7228,-3.7114,-3.7222,-3.7222,-3.7222,-3.7221,-3.7221,0,-3.6924,-3.6938,-3.6971,-3.7006,-3.7034,-3.702,-3.7047,-3.7071,-3.711,-3.7132,-3.7162,-3.7207,-3.7243,-3.7256,-3.7291,-3.7316,-3.731,-3.7325,-3.7322,-3.7325,-3.7241,-3.7227,-3.7329,-3.7329,-3.7329,-3.7329,-3.7329,-3.7329,-3.6979,-3.7032,-3.7035,-3.7097,-3.7111,-3.7153,-3.717,-3.7191,-3.7209,-3.7261,-3.7291,-3.73,-3.7319,-3.7356,-3.7388,-3.7391,-3.7405,-3.7422,-3.7422,-3.7342,-3.7331,-3.7321,-3.7308,-3.7425,-3.7426,-3.7504,-3.7504,-3.7505]},{"header":{"parameterUnit":"m.s-1","parameterCategory":1,"la1":30.2991,"la2":30.254,"lo1":-89.0895,"lo2":-89.0444,"dy":0.0017,"dx":0.0017,"nx":28,"ny":28,"refTime":"2026-03-04T09:00:00:Z","depth":0,"parameterNumber":3,"parameterNumberName":"V-component_of_WINDS"},"data":[0,0,0,0,0,0,0,0,0,0,0,0,0,0,0,0,0,0,0,0,0,0,0,0,0,0,0,0,0,0,0,0,0,0,0,0,0,0,0,0,0,0,0,0,0,0,0,0,0,0,0,0,0,0,0,0,0,0,1.5203,1.5204,0,1.5279,1.528,1.5281,1.5315,1.5315,1.5315,1.5315,1.5391,1.5393,1.5396,0,0,0,0,0,0,0,0,0,0,0,0,0,1.509,1.5092,1.5203,1.5204,1.5205,1.5279,1.528,1.5281,1.5315,1.5315,1.5315,1.5315,1.5391,1.5393,1.5396,0,0,0,0,0,0,0,0,0,0,0,0,0,1.515,1.5092,1.5203,1.5231,1.5234,1.5279,1.528,1.5281,1.5315,1.5315,1.5315,1.5315,1.539,1.5393,1.5396,1.5418,0,0,1.5406,1.5407,0,0,0,0,0,0,0,0,1.5146,1.5154,1.5226,1.5229,1.5233,1.5288,1.5268,1.5327,1.5315,1.5285,1.5315,1.5315,1.5357,1.5363,1.5377,1.5421,1.5424,1.5406,1.5408,1.5409,1.541,0,0,0,0,0,0,0,1.5142,1.5151,1.5233,1.5227,1.5231,1.5241,1.5249,1.5279,1.532,1.5287,1.529,1.5299,1.5359,1.5374,1.5379,1.5425,1.5406,1.5409,1.5411,1.5412,1.5495,1.5495,0,0,0,0,0,0,1.5133,1.5147,1.5231,1.5235,1.5189,1.5243,1.5252,1.527,1.532,1.5328,1.5299,1.53,1.5369,1.5375,1.5382,1.5413,1.5409,1.5412,1.5414,1.5495,1.5495,1.5496,0,0,0,0,0,0,1.5131,1.514,1.5228,1.5192,1.5204,1.5245,1.5265,1.5272,1.5287,1.5329,1.5336,1.5307,1.5369,1.5378,1.541,1.5416,1.5414,1.5416,1.5494,1.5495,1.5495,1.5474,0,0,0,0,0,0,1.5127,1.5139,1.5147,1.5192,1.5206,1.5253,1.5265,1.5273,1.5293,1.5295,1.5338,1.5345,1.5369,1.5405,1.5413,1.542,1.5419,1.5494,1.5495,1.5495,1.5474,1.5473,1.5473,0,0,0,0,0,1.5123,1.5137,1.5147,1.5157,1.5216,1.5253,1.5261,1.5289,1.5293,1.5302,1.5329,1.5344,1.5414,1.5408,1.5417,1.5426,1.5494,1.5494,1.5495,1.5474,1.5473,1.5473,0,0,0,0,0,0,1.509,1.5143,1.5155,1.5184,1.5214,1.5259,1.5271,1.5287,1.5317,1.5317,1.5351,1.536,1.539,1.5411,1.5403,1.5451,1.5455,1.5458,1.5436,1.5436,1.5435,1.543,1.5421,0,0,0,0,0,1.5087,1.5112,1.5157,1.5178,1.5193,1.5229,1.5246,1.5266,1.5298,1.5311,1.5341,1.5371,1.5401,1.542,1.5449,1.5477,1.5489,1.5488,1.5488,1.5487,1.5489,1.5509,1.551,1.5498,1.5498,1.5498,0,0,1.5079,1.5111,1.5124,1.5172,1.5198,1.5225,1.524,1.5266,1.5287,1.5315,1.5348,1.5371,1.5408,1.5439,1.5454,1.5457,1.5495,1.5488,1.5487,1.549,1.551,1.5511,1.5512,1.5498,1.5498,1.5498,0,0,1.5078,1.5104,1.5126,1.5153,1.5192,1.5217,1.5223,1.5266,1.5283,1.5317,1.5339,1.5365,1.5413,1.544,1.546,1.5474,1.549,1.5483,1.548,1.5499,1.55,1.5501,1.5508,1.551,1.5484,1.5484,1.5484,0,1.5063,1.5104,1.5135,1.5162,1.5184,1.5212,1.5236,1.5259,1.5306,1.5321,1.5324,1.5389,1.5415,1.5455,1.5459,1.5473,1.5482,1.5478,1.5497,1.5498,1.55,1.5507,1.551,1.5483,1.5483,1.5484,1.5484,0,1.5086,1.5114,1.5127,1.5174,1.5196,1.5221,1.5257,1.5277,1.5295,1.532,1.5356,1.5389,1.5427,1.5438,1.5455,1.5481,1.5482,1.5491,1.5496,1.55,1.5507,1.551,1.5482,1.5482,1.5483,1.5483,0,0,1.5064,1.513,1.5135,1.5158,1.5205,1.5228,1.5255,1.5294,1.5311,1.5343,1.5368,1.5411,1.5421,1.5443,1.5464,1.5481,1.5493,1.5488,1.5489,1.5489,1.5527,1.5521,1.5524,1.5504,1.5505,1.5505,1.5525,0,1.5072,1.5123,1.5153,1.5191,1.522,1.5249,1.5273,1.5306,1.5331,1.5359,1.5386,1.5417,1.5426,1.5441,1.5458,1.5488,1.5502,1.5487,1.5529,1.553,1.552,1.5527,1.552,1.5537,1.5528,1.5528,1.5528,0,1.5087,1.512,1.5162,1.521,1.5223,1.5244,1.5284,1.531,1.5348,1.5366,1.5393,1.5415,1.5446,1.5449,1.5494,1.5484,1.5503,1.5521,1.5522,1.5528,1.553,1.5535,1.5543,1.5546,1.5533,1.5533,1.5532,0,1.507,1.5125,1.5159,1.5177,1.5233,1.5248,1.5272,1.531,1.5333,1.5367,1.5383,1.542,1.5441,1.547,1.5502,1.5501,1.5545,1.555,1.5562,1.5561,1.557,1.5569,1.5582,1.558,1.558,1.558,1.558,0,1.5075,1.51,1.5152,1.5173,1.5202,1.5238,1.5267,1.5293,1.5328,1.5355,1.5382,1.5407,1.5447,1.5478,1.5503,1.5538,1.5547,1.5563,1.5569,1.5561,1.5559,1.5574,1.5574,1.5581,1.558,1.558,1.558,0,1.5061,1.5096,1.5135,1.5186,1.52,1.522,1.5264,1.5286,1.5313,1.5348,1.5358,1.5401,1.5439,1.5474,1.5523,1.554,1.5577,1.5584,1.5564,1.5568,1.5578,1.5578,1.5603,1.5609,1.5601,1.5601,1.5601,0,1.5062,1.5083,1.5137,1.5158,1.5182,1.5214,1.5238,1.5275,1.5299,1.5347,1.5363,1.5403,1.5437,1.5496,1.5532,1.5571,1.5581,1.5588,1.5587,1.5579,1.5584,1.5582,1.5586,1.5587,1.5587,1.5587,1.5587,0,1.5062,1.508,1.5113,1.5154,1.5183,1.5216,1.5251,1.5266,1.531,1.5336,1.5375,1.5402,1.5454,1.5494,1.5538,1.5564,1.5583,1.5587,1.5592,1.5584,1.5572,1.5581,1.5564,1.5586,1.5586,1.5586,1.5586,1.5586,1.5057,1.5078,1.5121,1.5158,1.5189,1.5221,1.5245,1.5277,1.5311,1.5357,1.5377,1.5418,1.546,1.5521,1.5547,1.558,1.5584,1.5591,1.5593,1.5594,1.5594,1.5567,1.5588,1.5588,1.5588,1.5588,1.5588,0,1.506,1.509,1.5124,1.5173,1.5203,1.522,1.526,1.5285,1.532,1.5358,1.5392,1.5439,1.5479,1.552,1.5562,1.5582,1.5592,1.5592,1.5591,1.5597,1.5586,1.5579,1.5583,1.5583,1.5583,1.5583,1.5583,1.5583,1.5065,1.5102,1.5125,1.5179,1.5209,1.525,1.5272,1.5303,1.5333,1.5385,1.5419,1.5446,1.5486,1.5532,1.5571,1.5582,1.5597,1.5595,1.5608,1.5597,1.5598,1.5598,1.5591,1.5597,1.5597,1.5617,1.5617,1.5617]}]]